{"data":{"norad_id":68826,"epoch":"2026-09-20T01:42:46.181376Z","epoch_age_seconds":93175,"freshness":"FRESH","line1":"1 68826U 26090A   26263.07136784  .00036125  00000+0  14202-3 0  9990","line2":"2 68826  96.6342 178.2239 0010577  49.1427 311.0761 15.86746388 23719","mean_motion":15.86746388,"eccentricity":0.0010577,"inclination_deg":96.6342,"raan_deg":178.2239,"arg_perigee_deg":49.1427,"mean_anomaly_deg":311.0761,"bstar":0.00014202,"rev_number":2371,"period_min":90.751742741638,"perigee_km":304.33630769369,"apogee_km":318.48737931724,"semimajor_km":6689.5488435055,"source":"CELESTRAK","updated_at":"2026-09-20T09:00:24.494020Z"}}